Oakes, ND

1:08 AM CDT on April 30, 2017 (GMT -0500)
Oakes

Weather History for K2D5 - January, 2013

Change the Weather History Date:

Wednesday, January 30, 2013

  Actual Average (KP67) Record (KP67)
Temperature  
Mean Temperature 2 °F -  
Max Temperature 15 °F 16 °F 37 °F (1997)
Min Temperature -11 °F 3 °F 0 °F (1997)
Degree Days  
Heating Degree Days 63    
Moisture  
Dew Point -3 °F    
Average Humidity 82    
Maximum Humidity 100    
Minimum Humidity 70    
Precipitation  
Precipitation 0.23 in - - ()
Sea Level Pressure  
Sea Level Pressure 29.89 in    
Wind  
Wind Speed 19 mph (NW)    
Max Wind Speed 26 mph    
Max Gust Speed 32 mph    
Visibility 8 miles    
Events Rain , Snow    
Averages and records for this station are not official NWS values.
T = Trace of Precipitation, MM = Missing Value Source: NWS Daily Summary

Daily Weather History Graph

Daily Weather History Graph

Search for Another Location

Airport or City:

Trip Planner

Search our weather history database for the weather conditions in past years. The results will help you decide how hot, cold, wet, or windy it might be!

Date:

Astronomy

Jan. 30, 2013 Rise Set
Actual Time 7:57 AM CST 5:34 PM CST
Civil Twilight 7:24 AM CST 6:07 PM CST
Nautical Twilight 6:48 AM CST 6:43 PM CST
Astronomical Twilight 6:13 AM CST 7:18 PM CST
Moon 9:52 PM CST 9:10 AM CST
Length of Visible Light 10h 42m
Length of Day
9h 37m
Waning Gibbous, 87% of the Moon is Illuminated
Jan 30
Waning Gibbous
Feb 3
Last Quarter
Feb 10
New
Feb 17
First Quarter
Feb 25
Full

Hourly Weather History & Observations

Time (CST) Temp. Windchill Dew Point Humidity Pressure Visibility Wind Dir Wind Speed Gust Speed Precip Events Conditions
12:15 AM 15.8 °F 0.9 °F 14.0 °F 93% 29.92 in 8.0 mi North 15.0 mph - N/A Snow Light Snow
12:35 AM 15.8 °F -0.2 °F 14.0 °F 93% 29.92 in 9.0 mi NNW 17.3 mph - N/A Snow Light Snow
12:55 AM 15.8 °F 0.9 °F 14.0 °F 93% 29.91 in 10.0 mi NNW 15.0 mph - N/A   Unknown
1:15 AM 15.8 °F -3.4 °F 14.0 °F 93% 29.90 in 9.0 mi NNW 26.5 mph 32.2 mph N/A Rain Light Freezing Rain
1:35 AM 15.8 °F -3.1 °F 12.2 °F 86% 29.90 in 10.0 mi NNW 25.3 mph - N/A   Unknown
1:55 AM 15.8 °F -2.3 °F 12.2 °F 86% 29.89 in 10.0 mi NNW 23.0 mph 28.8 mph N/A Snow Light Snow
2:15 AM 15.8 °F -2.3 °F 12.2 °F 86% 29.89 in 10.0 mi NNW 23.0 mph 26.5 mph N/A   Unknown
2:35 AM 14.0 °F -5.1 °F 12.2 °F 93% 29.89 in 4.0 mi NW 24.2 mph 28.8 mph 0.05 in Snow Light Snow
2:55 AM 14.0 °F -5.1 °F 10.4 °F 86% 29.88 in 8.0 mi NW 24.2 mph 31.1 mph 0.06 in Snow Light Snow
3:15 AM 14.0 °F -4.7 °F 10.4 °F 86% 29.88 in 10.0 mi NNW 23.0 mph 26.5 mph N/A   Unknown
3:35 AM 14.0 °F -4.3 °F 10.4 °F 86% 29.89 in 10.0 mi NW 21.9 mph 28.8 mph N/A   Unknown
3:55 AM 12.2 °F -6.3 °F 10.4 °F 92% 29.88 in 10.0 mi NNW 20.7 mph - N/A Snow Light Snow
4:15 AM 12.2 °F -7.5 °F 10.4 °F 92% 29.88 in 4.0 mi NNW 24.2 mph 28.8 mph 0.01 in Snow Light Snow
4:35 AM 10.4 °F -8.2 °F 10.4 °F 100% 29.89 in 5.0 mi NW 19.6 mph 26.5 mph 0.05 in Snow Light Snow
4:55 AM 10.4 °F -9.1 °F 8.6 °F 92% 29.89 in 2.0 mi NW 21.9 mph - 0.08 in Snow Light Snow
5:15 AM 8.6 °F -11.4 °F 6.8 °F 92% 29.90 in 3.0 mi NW 21.9 mph - N/A Rain Light Freezing Rain
5:35 AM 6.8 °F -13.4 °F 5.0 °F 92% 29.91 in 8.0 mi NW 20.7 mph - N/A Rain Light Freezing Rain
6:15 AM 6.8 °F -14.7 °F 3.2 °F 85% 29.90 in 6.0 mi NW 24.2 mph 29.9 mph N/A Snow Light Snow
6:35 AM 5.0 °F -14.7 °F 1.4 °F 85% 29.91 in 7.0 mi NW 18.4 mph 26.5 mph N/A Snow Light Snow
6:55 AM 5.0 °F -14.7 °F 1.4 °F 85% 29.91 in 10.0 mi NW 18.4 mph - N/A   Unknown
7:15 AM 5.0 °F -13.6 °F -0.4 °F 78% 29.91 in 10.0 mi NW 16.1 mph - N/A   Unknown
7:35 AM 5.0 °F -13.0 °F -0.4 °F 78% 29.91 in 10.0 mi NW 15.0 mph 23.0 mph N/A   Unknown
7:55 AM 5.0 °F -14.7 °F -0.4 °F 78% 29.92 in 10.0 mi NW 18.4 mph 24.2 mph N/A Snow Light Snow
8:15 AM 5.0 °F -13.0 °F -0.4 °F 78% 29.92 in 10.0 mi NW 15.0 mph - N/A Snow Light Snow
8:35 AM 3.2 °F -18.1 °F -0.4 °F 85% 29.92 in 7.0 mi NW 20.7 mph - N/A Snow Light Snow
8:55 AM 1.4 °F -20.5 °F -0.4 °F 92% 29.91 in 5.0 mi WNW 20.7 mph 24.2 mph N/A Snow Light Snow
9:15 AM 1.4 °F -19.4 °F -2.2 °F 85% 29.91 in 8.0 mi NW 18.4 mph 24.2 mph N/A Rain Light Freezing Rain
9:35 AM 1.4 °F -19.4 °F -0.4 °F 92% 29.91 in 5.0 mi NW 18.4 mph 23.0 mph N/A Rain Light Freezing Rain
9:55 AM 1.4 °F -19.4 °F -0.4 °F 92% 29.90 in 2.5 mi NW 18.4 mph 25.3 mph 0.01 in Snow Light Snow
10:15 AM 1.4 °F -20.5 °F -0.4 °F 92% 29.90 in 1.2 mi NW 20.7 mph 25.3 mph 0.03 in Snow Light Snow
10:35 AM 1.4 °F -21.0 °F -2.2 °F 85% 29.90 in 1.2 mi NW 21.9 mph 28.8 mph 0.06 in Snow Light Snow
10:55 AM 1.4 °F -21.4 °F -2.2 °F 85% 29.89 in 2.5 mi NW 23.0 mph - 0.07 in Rain Light Freezing Rain
11:15 AM 1.4 °F -20.5 °F -2.2 °F 85% 29.89 in 4.0 mi NW 20.7 mph - N/A Rain Light Freezing Rain
11:35 AM 1.4 °F -19.9 °F -0.4 °F 92% 29.89 in 5.0 mi NW 19.6 mph - N/A Rain Light Freezing Rain
11:55 AM 3.2 °F -17.1 °F -0.4 °F 85% 29.89 in 2.5 mi NW 18.4 mph 24.2 mph N/A Rain Light Freezing Rain
12:15 PM 3.2 °F -16.5 °F -0.4 °F 85% 29.88 in 4.0 mi NW 17.3 mph 20.7 mph N/A   Mist
12:35 PM 3.2 °F -17.6 °F -0.4 °F 85% 29.87 in 4.0 mi NW 19.6 mph - N/A Snow Light Snow
12:55 PM 3.2 °F -16.5 °F -0.4 °F 85% 29.87 in 4.0 mi NW 17.3 mph 23.0 mph N/A Rain Light Freezing Rain
1:15 PM 1.4 °F -19.4 °F -2.2 °F 85% 29.87 in 4.0 mi NW 18.4 mph - N/A   Mist
1:35 PM -0.4 °F -23.8 °F -4.0 °F 85% 29.86 in 6.0 mi NW 23.0 mph - N/A   Mist
1:55 PM -0.4 °F -21.2 °F -4.0 °F 85% 29.87 in 7.0 mi NW 17.3 mph 23.0 mph N/A   Unknown
2:15 PM -0.4 °F -22.8 °F -4.0 °F 85% 29.86 in 5.0 mi NW 20.7 mph - N/A Snow Light Snow
2:35 PM -0.4 °F -21.7 °F -4.0 °F 85% 29.86 in 3.0 mi NW 18.4 mph 24.2 mph N/A Snow Light Snow
2:55 PM -0.4 °F -21.2 °F -5.8 °F 78% 29.86 in 3.0 mi NW 17.3 mph 21.9 mph 0.01 in Snow Light Snow
3:15 PM -0.4 °F -21.2 °F -5.8 °F 78% 29.87 in 10.0 mi NW 17.3 mph - N/A   Unknown
3:35 PM -0.4 °F -20.5 °F -5.8 °F 78% 29.86 in 10.0 mi NW 16.1 mph 20.7 mph N/A   Unknown
3:55 PM -0.4 °F -23.3 °F -7.6 °F 72% 29.86 in 10.0 mi NW 21.9 mph - N/A   Unknown
4:15 PM -2.2 °F -22.9 °F -7.6 °F 78% 29.87 in 10.0 mi NW 16.1 mph - N/A   Unknown
4:35 PM -2.2 °F -23.5 °F -9.4 °F 71% 29.87 in 10.0 mi NW 17.3 mph - N/A   Unknown
4:55 PM -2.2 °F -24.7 °F -9.4 °F 71% 29.87 in 9.0 mi NW 19.6 mph 25.3 mph N/A   Unknown
5:15 PM -4.0 °F -27.0 °F -11.2 °F 71% 29.88 in 9.0 mi NW 19.6 mph - N/A   Unknown
5:35 PM -4.0 °F -23.7 °F -11.2 °F 71% 29.88 in 10.0 mi NW 13.8 mph - N/A   Unknown
5:55 PM -4.0 °F -25.2 °F -11.2 °F 71% 29.88 in 10.0 mi NW 16.1 mph 20.7 mph N/A   Unknown
6:15 PM -5.8 °F -26.8 °F -11.2 °F 77% 29.89 in 10.0 mi NW 15.0 mph - N/A   Unknown
6:35 PM -5.8 °F -26.0 °F -11.2 °F 77% 29.89 in 10.0 mi NW 13.8 mph - N/A   Unknown
6:55 PM -5.8 °F -27.5 °F -13.0 °F 71% 29.88 in 10.0 mi NW 16.1 mph 19.6 mph N/A   Unknown
7:15 PM -7.6 °F -29.1 °F -13.0 °F 77% 29.88 in 10.0 mi NW 15.0 mph - N/A   Unknown
7:35 PM -7.6 °F -30.5 °F -13.0 °F 77% 29.88 in 10.0 mi NW 17.3 mph 23.0 mph N/A   Unknown
7:55 PM -7.6 °F -29.1 °F -13.0 °F 77% 29.89 in 10.0 mi NW 15.0 mph 20.7 mph N/A   Unknown
8:15 PM -7.6 °F -30.5 °F -13.0 °F 77% 29.90 in 10.0 mi NW 17.3 mph 23.0 mph N/A   Unknown
8:35 PM -7.6 °F -32.3 °F -14.8 °F 71% 29.89 in 9.0 mi NW 20.7 mph 27.6 mph N/A   Unknown
8:55 PM -9.4 °F -34.1 °F -14.8 °F 77% 29.90 in 9.0 mi NW 19.6 mph - N/A   Clear
9:15 PM -9.4 °F -33.5 °F -16.6 °F 71% 29.90 in 10.0 mi NW 18.4 mph 26.5 mph N/A   Unknown
9:35 PM -9.4 °F -34.7 °F -16.6 °F 71% 29.91 in 9.0 mi NW 20.7 mph 25.3 mph N/A   Unknown
9:55 PM -9.4 °F -35.8 °F -16.6 °F 71% 29.91 in 10.0 mi NW 23.0 mph 27.6 mph N/A   Unknown
10:15 PM -9.4 °F -34.1 °F -16.6 °F 71% 29.91 in 10.0 mi NW 19.6 mph 26.5 mph N/A   Unknown
10:35 PM -9.4 °F -35.8 °F -16.6 °F 71% 29.91 in 9.0 mi NW 23.0 mph - N/A   Unknown
10:55 PM -9.4 °F -34.7 °F -16.6 °F 71% 29.91 in 5.0 mi NW 20.7 mph 28.8 mph N/A   Haze
11:15 PM -9.4 °F -35.2 °F -16.6 °F 71% 29.92 in 8.0 mi NW 21.9 mph 26.5 mph N/A   Unknown
11:35 PM -11.2 °F -37.6 °F -16.6 °F 77% 29.93 in 9.0 mi NW 21.9 mph 27.6 mph N/A   Unknown
11:55 PM -11.2 °F -35.8 °F -18.4 °F 70% 29.93 in 10.0 mi NW 18.4 mph 26.5 mph N/A   Mostly Cloudy